Location: Caltech
(34.1382°N, 118.1253°W)
Time: 15:27:49
(UTC-07:00)

Daily predictions for brighter satellites

Satellite Brightness Start Highest point End
(mag) Time Altitude Azimuth Time Altitude Azimuth Time Altitude Azimuth
Atlas Centaur 2 3.4 18:51:12 10° W 18:59:40 64° S 19:07:40 10° ESE
Cosmos 2237 Rocket 3.2 18:58:45 10° SW 19:04:17 53° WNW 19:09:51 10° N
ATLAS CENTAUR R/B 1.7 19:01:26 10° NNW 19:05:23 42° ENE 19:09:03 10° SE
Resurs 01 Rocket 2.8 19:05:32 10° ESE 19:08:59 22° ENE 19:12:27 10° NNE
Okean 3 Rocket 3.8 19:06:52 10° N 19:11:19 52° E 19:15:44 10° SSE
ATLAS 5 CENTAUR R/B 2.1 19:07:25 10° S 19:11:50 43° ESE 19:16:32 10° NE
Cosmos 1624 Rocket 4.1 19:09:35 10° N 19:14:43 57° ENE 19:19:47 10° SSE
Meteor 1-29 4.0 19:17:54 10° NE 19:20:50 24° E 19:23:43 10° SSE
ISS -1.3 19:20:11 10° SSE 19:21:32 12° SE 19:22:15 11° ESE
Cosmos 192 4.4 19:17:32 10° S 19:22:24 61° ESE 19:27:18 10° NNE
Milstar 3 4.4 19:13:57 10° WSW 19:23:24 68° S 19:40:01 14° E
SL-16 R/B 2.3 19:17:58 10° SSW 19:23:39 87° WNW 19:29:22 10° NNE
Cosmos 1953 3.1 19:21:09 10° SSE 19:24:35 28° E 19:28:01 10° NNE
BREEZE-M TANK 3.2 19:15:33 10° WNW 19:26:08 81° NNE 19:29:14 12° ESE
USA 215 3.3 19:23:29 10° NE 19:30:03 87° NW 19:36:35 10° SW
ATLAS CENTAUR R/B 3.3 19:26:41 10° SW 19:30:50 82° NW 19:43:39 10° NE
Spot 1 4.5 19:26:54 10° SSE 19:31:34 50° ENE 19:35:59 10° N
Helios 1A 3.6 19:28:34 10° SE 19:32:20 34° ENE 19:36:09 10° N
Cosmos 1805 3.7 19:31:25 10° SSE 19:35:02 38° E 19:38:42 10° NNE
OAO 1 Rocket 4.5 19:30:15 10° WSW 19:35:38 83° SSE 19:39:52 17° E
BREEZE-M DEB (TANK) 4.2 19:32:22 10° NW 19:36:13 84° SW 19:50:12 10° SE
H-2A R/B 4.4 19:36:27 16° ENE 19:36:42 16° ENE 19:39:09 10° NNE
Cosmos 1544 4.1 19:34:04 10° SSE 19:37:08 25° E 19:40:14 10° NE
Cosmos 1072 Rocket 4.4 19:31:24 10° S 19:37:31 83° E 19:43:39 10° N
CZ-4B DEB 4.4 19:39:32 18° ENE 19:39:32 18° ENE 19:41:39 10° NNE
Cosmos 1378 3.0 19:36:47 10° N 19:40:31 82° E 19:44:14 10° S
SeaSat 1 3.4 19:38:02 10° NE 19:42:04 25° ESE 19:46:05 10° SSE
METEOR-M 4.1 19:38:02 10° SSE 19:43:19 67° ENE 19:48:38 10° N
Meteor 1-28 Rocket 3.9 19:39:47 10° N 19:43:27 56° WNW 19:47:04 10° SSW
Cosmos 1452 Rocket 4.0 19:39:08 10° N 19:44:02 39° ENE 19:47:54 15° SE
ALOS 3.0 19:42:51 16° SE 19:45:54 31° ENE 19:50:00 10° N
SEDSat Delta rocket 4.1 19:41:04 10° WSW 19:47:44 70° S 19:52:20 22° E
OAO 3 Rocket 3.2 19:43:24 10° W 19:48:11 83° N 19:51:11 23° E
Cosmos 1513 Rocket 4.5 19:45:37 10° S 19:51:57 81° E 19:58:24 10° N
FREGAT/IRIS 3.2 19:49:05 10° S 19:52:08 60° W 19:55:12 10° NNW
Cosmos 2278 Rocket 3.8 19:47:13 10° NW 19:52:22 37° WSW 19:57:30 10° S
FENGYUN 3A 4.1 19:48:13 14° SE 19:52:26 39° ENE 19:57:23 10° N
SJ-6B 3.9 19:52:22 10° S 19:56:09 48° W 20:00:04 10° NNW
Cosmos 724 4.2 19:50:20 10° SSW 19:56:11 78° ESE 20:02:14 10° NNE
Cosmos 468 4.4 19:51:31 10° S 19:56:42 64° ESE 20:01:53 10° NNE
Meteor 2-12 Rocket 4.4 19:51:05 10° S 19:57:10 68° E 20:03:17 10° NNE
Cosmos 2297 3.9 19:51:54 10° NNW 19:57:34 75° WSW 20:03:09 10° SSE
NOSS 3-2 (A) 4.5 19:55:03 10° SW 20:00:49 47° NW 20:07:05 10° NNE
Cosmos 1766 Rocket 3.4 19:58:54 10° N 20:03:17 84° E 20:07:36 10° S
Cosmos 1758 3.5 20:02:02 10° S 20:06:06 77° W 20:10:12 10° N
Cosmos 1943 3.9 20:02:59 10° SSE 20:14:49 - NE 20:07:18 31° ESE
Cosmos 1603 3.6 20:05:08 10° SSW 20:10:51 86° ESE 20:16:38 10° NNE
Cosmos 2369 Rocket 3.7 20:07:17 10° NNE 20:10:43 19° NE 20:10:43 19° NE
Cosmos 2034 Rocket 4.1 20:05:47 10° S 20:12:00 77° W 20:18:21 10° N
GPS 2-04 Rocket1 2.7 20:12:22 10° WSW 20:15:36 51° S 20:15:36 51° S
Timation 1 Rocket 4.5 20:11:07 10° NNW 20:17:05 75° WSW 20:22:41 12° SSE
Cosmos 1269 Rocket 3.9 20:13:00 10° S 20:18:16 78° ESE 20:23:33 10° NNE
Cosmos 1076 Rocket 4.5 20:15:13 10° NNW 20:19:23 48° W 20:23:33 10° SSW
Spot 2 Rocket 4.0 20:15:06 10° S 20:20:03 58° WSW 20:25:01 10° NNW
Helios 1B rocket 3.9 20:16:28 10° N 20:20:18 39° WNW 20:24:07 10° SW
Cosmos-2242 3.5 20:16:18 10° SSW 20:20:34 60° W 20:24:55 10° N
Cosmos 1048 Rocket 3.9 20:17:07 10° S 20:22:25 72° ESE 20:27:39 10° NNE
Meteosat 1 Rocket2 4.4 20:19:45 10° SW 20:24:56 29° S 20:25:10 29° SSE
SL-8 R/B 3.7 20:21:24 10° SW 20:26:10 78° NW 20:27:44 42° NE
FengYun 1-2 T 4.4 20:20:43 10° S 20:26:14 72° WSW 20:31:43 10° NNW
ASTEX 1 3.2 20:21:28 10° N 20:26:23 82° E 20:31:16 10° S
Cosmos 1674 4.2 20:25:03 10° N 20:26:55 26° NNE 20:26:55 26° NNE
Cosmos 1842 Rocket 3.4 20:32:03 75° NE 20:32:03 75° NE 20:36:08 10° N
BREEZE-M DEB (TANK) 4.3 20:29:32 10° W 20:32:21 29° SSW 20:36:39 16° SSE
ASTRO E2 3.2 20:30:01 10° W 20:33:29 51° SW 20:33:29 51° SW
Abrixas 4.4 20:32:12 10° WSW 20:33:58 29° W 20:33:58 29° W
Cosmos 1500 Rocket 4.2 20:33:04 10° N 20:36:15 45° NNE 20:36:15 45° NNE
CENTAUR R/B 2.3 20:31:43 10° SSW 20:37:32 66° ESE 20:40:44 30° NE
ATLAS CENTAUR R/B 4.3 20:42:34 10° W 20:43:54 11° WSW 20:45:11 10° SW
Resurs 01 Rocket 3.7 20:41:31 10° SSW 20:45:17 27° W 20:49:04 10° NW
Atlas Centaur 2 3.7 20:41:27 10° W 20:49:08 39° SSW 20:51:29 32° S
CZ-2D R/B 4.5 20:53:47 41° WNW 20:53:47 41° WNW 20:56:50 10° NNW
ATLAS 5 CENTAUR R/B 4.2 20:53:07 10° W 20:56:44 21° NW 21:00:32 10° N
ISS -0.3 20:54:33 10° WSW 20:55:00 13° WSW 20:55:00 13° WSW
SeaSat 1 3.9 21:15:07 10° N 21:19:34 35° WNW 21:24:00 10° WSW
BREEZE-M DEB (TANK) 4.3 21:14:01 10° SW 21:30:34 72° S 21:30:34 72° S
Cosmos 2369 Rocket 4.0 21:50:01 10° NNW 21:52:32 26° NW 21:52:32 26° NW
